TimeAKDT,TemperatureF,Dew PointF,Humidity,Sea Level PressureIn,VisibilityMPH,Wind Direction,Wind SpeedMPH,Gust SpeedMPH,PrecipitationIn,Events,Conditions,WindDirDegrees,DateUTC
12:16 AM,42.8,37.4,81,30.04,10.0,Calm,Calm,-,N/A,,Overcast,0,2013-10-15 08:16:00
12:36 AM,41.0,37.4,87,30.03,10.0,East,3.5,-,N/A,,Overcast,100,2013-10-15 08:36:00
12:56 AM,41.0,37.4,87,30.04,10.0,Calm,Calm,-,N/A,,Overcast,0,2013-10-15 08:56:00
1:16 AM,41.0,37.4,87,30.04,10.0,East,3.5,-,N/A,,Overcast,80,2013-10-15 09:16:00
1:36 AM,41.0,37.4,87,30.04,10.0,Calm,Calm,-,N/A,,Overcast,0,2013-10-15 09:36:00
1:56 AM,41.0,37.4,87,30.04,10.0,Calm,Calm,-,N/A,,Overcast,0,2013-10-15 09:56:00
2:16 AM,41.0,37.4,87,30.04,10.0,Calm,Calm,-,N/A,,Overcast,0,2013-10-15 10:16:00
2:36 AM,41.0,37.4,87,30.04,10.0,Calm,Calm,-,N/A,,Overcast,0,2013-10-15 10:36:00
2:56 AM,41.0,37.4,87,30.04,10.0,Calm,Calm,-,N/A,,Overcast,0,2013-10-15 10:56:00
3:16 AM,41.0,37.4,87,30.04,10.0,Calm,Calm,-,N/A,,Overcast,0,2013-10-15 11:16:00
3:36 AM,41.0,37.4,87,30.03,10.0,Calm,Calm,-,N/A,,Overcast,0,2013-10-15 11:36:00
3:56 AM,41.0,37.4,87,30.03,10.0,Calm,Calm,-,N/A,,Overcast,0,2013-10-15 11:56:00
4:16 AM,41.0,37.4,87,30.03,10.0,Calm,Calm,-,N/A,,Overcast,0,2013-10-15 12:16:00
4:36 AM,41.0,37.4,87,30.02,10.0,ESE,5.8,-,N/A,,Overcast,110,2013-10-15 12:36:00
4:56 AM,41.0,37.4,87,30.03,10.0,Calm,Calm,-,N/A,,Overcast,0,2013-10-15 12:56:00
5:16 AM,41.0,37.4,87,30.03,10.0,Calm,Calm,-,N/A,,Overcast,0,2013-10-15 13:16:00
5:36 AM,41.0,37.4,87,30.02,10.0,Calm,Calm,-,N/A,,Overcast,0,2013-10-15 13:36:00
5:56 AM,41.0,37.4,87,30.01,10.0,Calm,Calm,-,N/A,,Overcast,0,2013-10-15 13:56:00
6:16 AM,41.0,37.4,87,30.00,10.0,Calm,Calm,-,N/A,,Overcast,0,2013-10-15 14:16:00
6:36 AM,41.0,37.4,87,30.00,10.0,Calm,Calm,-,N/A,,Overcast,0,2013-10-15 14:36:00
6:56 AM,41.0,37.4,87,29.99,10.0,Calm,Calm,-,N/A,,Overcast,0,2013-10-15 14:56:00
7:16 AM,41.0,37.4,87,29.98,10.0,Calm,Calm,-,N/A,,Overcast,0,2013-10-15 15:16:00
7:36 AM,41.0,37.4,87,29.98,10.0,Calm,Calm,-,N/A,,Overcast,0,2013-10-15 15:36:00
7:56 AM,42.8,39.2,87,29.98,10.0,Calm,Calm,-,N/A,,Overcast,0,2013-10-15 15:56:00
8:16 AM,41.0,37.4,87,29.98,10.0,Calm,Calm,-,N/A,,Overcast,0,2013-10-15 16:16:00
8:36 AM,41.0,39.2,93,29.98,10.0,Calm,Calm,-,N/A,,Overcast,0,2013-10-15 16:36:00
8:56 AM,41.0,39.2,93,29.97,10.0,Calm,Calm,-,N/A,,Overcast,0,2013-10-15 16:56:00
9:16 AM,41.0,39.2,93,29.99,9.0,WSW,3.5,-,0.01,,Mostly Cloudy,250,2013-10-15 17:16:00
9:36 AM,42.8,39.2,87,30.00,9.0,Calm,Calm,-,0.01,,Scattered Clouds,0,2013-10-15 17:36:00
9:56 AM,42.8,39.2,87,30.00,9.0,West,3.5,-,0.02,,Mostly Cloudy,280,2013-10-15 17:56:00
10:16 AM,42.8,39.2,87,30.00,8.0,Calm,Calm,-,N/A,,Overcast,0,2013-10-15 18:16:00
10:36 AM,42.8,39.2,87,30.00,7.0,Calm,Calm,-,0.01,,Overcast,0,2013-10-15 18:36:00
10:56 AM,42.8,39.2,87,29.99,9.0,Calm,Calm,-,0.01,,Overcast,0,2013-10-15 18:56:00
11:16 AM,42.8,39.2,87,29.99,10.0,Calm,Calm,-,N/A,,Overcast,0,2013-10-15 19:16:00
11:36 AM,44.6,41.0,87,30.01,10.0,West,4.6,-,N/A,,Overcast,280,2013-10-15 19:36:00
11:56 AM,42.8,41.0,93,30.01,5.0,West,5.8,-,N/A,,Overcast,280,2013-10-15 19:56:00
12:16 PM,44.6,39.2,81,30.01,5.0,Calm,Calm,-,N/A,,Overcast,0,2013-10-15 20:16:00
12:36 PM,44.6,42.8,93,30.00,3.0,Calm,Calm,-,N/A,,Overcast,0,2013-10-15 20:36:00
12:56 PM,44.6,42.8,93,30.01,3.0,Calm,Calm,-,N/A,,Overcast,0,2013-10-15 20:56:00
1:16 PM,44.6,42.8,93,30.00,3.0,West,3.5,-,N/A,,Overcast,270,2013-10-15 21:16:00
1:36 PM,46.4,44.6,93,30.01,4.0,Calm,Calm,-,N/A,,Overcast,0,2013-10-15 21:36:00
1:56 PM,46.4,44.6,93,30.00,5.0,Calm,Calm,-,N/A,,Overcast,0,2013-10-15 21:56:00
2:16 PM,46.4,44.6,93,30.01,6.0,West,3.5,-,N/A,,Overcast,270,2013-10-15 22:16:00
2:36 PM,46.4,44.6,93,30.01,8.0,West,4.6,-,N/A,,Overcast,260,2013-10-15 22:36:00
2:56 PM,46.4,44.6,93,30.01,10.0,West,3.5,-,N/A,,Overcast,260,2013-10-15 22:56:00
3:16 PM,48.2,44.6,87,30.01,10.0,West,3.5,-,N/A,,Overcast,270,2013-10-15 23:16:00
3:36 PM,48.2,44.6,87,30.02,10.0,Calm,Calm,-,N/A,,Overcast,0,2013-10-15 23:36:00
3:56 PM,48.2,44.6,87,30.02,10.0,West,3.5,-,N/A,,Overcast,260,2013-10-15 23:56:00
4:16 PM,48.2,44.6,87,30.01,10.0,Calm,Calm,-,N/A,,Overcast,0,2013-10-16 00:16:00
4:36 PM,48.2,44.6,87,30.01,10.0,Calm,Calm,-,N/A,,Overcast,0,2013-10-16 00:36:00
4:56 PM,48.2,44.6,87,30.02,10.0,Calm,Calm,-,N/A,,Overcast,0,2013-10-16 00:56:00
5:16 PM,48.2,44.6,87,30.02,10.0,Calm,Calm,-,N/A,,Overcast,0,2013-10-16 01:16:00
5:36 PM,48.2,46.4,93,30.02,10.0,Calm,Calm,-,N/A,,Overcast,0,2013-10-16 01:36:00
5:56 PM,48.2,44.6,87,30.02,10.0,East,6.9,-,N/A,,Overcast,100,2013-10-16 01:56:00
6:16 PM,48.2,44.6,87,30.01,10.0,East,6.9,-,N/A,,Overcast,80,2013-10-16 02:16:00
6:36 PM,48.2,44.6,87,30.02,10.0,Calm,Calm,-,N/A,,Overcast,0,2013-10-16 02:36:00
6:56 PM,48.2,44.6,87,30.03,10.0,SE,3.5,-,N/A,,Overcast,140,2013-10-16 02:56:00
7:16 PM,48.2,44.6,87,30.03,10.0,ESE,6.9,-,N/A,,Overcast,120,2013-10-16 03:16:00
7:36 PM,48.2,44.6,87,30.03,10.0,ESE,5.8,-,N/A,,Overcast,110,2013-10-16 03:36:00
7:56 PM,48.2,44.6,87,30.03,10.0,NE,4.6,-,N/A,,Overcast,40,2013-10-16 03:56:00
8:16 PM,48.2,44.6,87,30.03,10.0,ENE,3.5,-,N/A,,Overcast,60,2013-10-16 04:16:00
8:36 PM,48.2,44.6,87,30.05,10.0,Calm,Calm,-,N/A,,Overcast,0,2013-10-16 04:36:00
8:56 PM,48.2,44.6,87,30.05,10.0,Calm,Calm,-,N/A,,Overcast,0,2013-10-16 04:56:00
9:16 PM,48.2,44.6,87,30.05,10.0,East,3.5,-,N/A,,Mostly Cloudy,90,2013-10-16 05:16:00
9:36 PM,48.2,44.6,87,30.05,10.0,SE,3.5,-,N/A,,Mostly Cloudy,130,2013-10-16 05:36:00
9:56 PM,46.4,44.6,93,30.05,10.0,East,6.9,-,N/A,,Overcast,100,2013-10-16 05:56:00
10:16 PM,46.4,44.6,93,30.07,10.0,West,4.6,-,N/A,,Overcast,260,2013-10-16 06:16:00
10:36 PM,46.4,44.6,93,30.07,10.0,West,5.8,-,N/A,,Overcast,270,2013-10-16 06:36:00
10:56 PM,48.2,44.6,87,30.09,10.0,West,6.9,-,N/A,,Overcast,260,2013-10-16 06:56:00
11:16 PM,48.2,44.6,87,30.09,10.0,Calm,Calm,-,N/A,,Overcast,0,2013-10-16 07:16:00
11:36 PM,46.4,44.6,93,30.10,10.0,Calm,Calm,-,N/A,,Overcast,0,2013-10-16 07:36:00
11:56 PM,46.4,44.6,93,30.10,10.0,Calm,Calm,-,N/A,,Overcast,0,2013-10-16 07:56:00